[[{"header":{"parameterUnit":"m.s-1","parameterCategory":1,"la1":30.2991,"la2":30.254,"lo1":-89.0895,"lo2":-89.0444,"dy":0.0017,"dx":0.0017,"nx":28,"ny":28,"refTime":"2023-08-18T21:00:00:Z","depth":0,"parameterNumber":2,"parameterNumberName":"U-component_of_WINDS"},"data":[0,0,0,0,0,0,0,0,0,0,0,0,0,0,0,0,0,0,0,0,0,0,0,0,0,0,0,0,0,0,0,0,0,0,0,0,0,0,0,0,0,0,0,0,0,0,0,0,0,0,0,0,0,0,0,0,0,0,3.3689,3.369,0,3.3773,3.3774,3.3775,3.3705,3.3702,3.3699,3.3697,3.3783,3.3788,3.3793,0,0,0,0,0,0,0,0,0,0,0,0,0,3.3468,3.3473,3.3689,3.369,3.3691,3.3773,3.3774,3.3775,3.3706,3.3702,3.3699,3.3695,3.3782,3.3788,3.3794,0,0,0,0,0,0,0,0,0,0,0,0,0,3.3559,3.3474,3.3689,3.3666,3.3665,3.3773,3.3774,3.3776,3.3707,3.3702,3.3698,3.3694,3.378,3.3787,3.3794,3.3929,0,0,3.3817,3.3821,0,0,0,0,0,0,0,0,3.3554,3.3568,3.3669,3.3668,3.3667,3.3724,3.3728,3.3827,3.3708,3.3691,3.3697,3.3692,3.3767,3.3775,3.3801,3.3933,3.3937,3.3818,3.3823,3.3826,3.3828,0,0,0,0,0,0,0,3.3548,3.3564,3.3722,3.367,3.3669,3.3652,3.366,3.3746,3.3753,3.3692,3.3687,3.3698,3.3766,3.3794,3.3802,3.3938,3.3818,3.3825,3.3829,3.3832,3.4183,3.4187,0,0,0,0,0,0,3.3544,3.3559,3.372,3.3725,3.3599,3.366,3.3669,3.371,3.3752,3.3754,3.3702,3.3694,3.3783,3.3794,3.3805,3.3964,3.3826,3.3833,3.3837,3.4178,3.4184,3.4189,0,0,0,0,0,0,3.354,3.3559,3.3716,3.3641,3.3659,3.3668,3.3716,3.3714,3.3742,3.3759,3.376,3.3729,3.378,3.3795,3.3898,3.3966,3.3836,3.3843,3.4173,3.418,3.4187,3.4283,0,0,0,0,0,0,3.3534,3.3558,3.3609,3.3642,3.3664,3.3808,3.372,3.3719,3.3755,3.3747,3.3785,3.3787,3.3778,3.3887,3.3906,3.3974,3.3849,3.4166,3.4176,3.4184,3.4274,3.4292,3.4308,0,0,0,0,0,3.3526,3.3633,3.3612,3.3632,3.3728,3.3812,3.3824,3.3812,3.3761,3.3812,3.3823,3.3786,3.3956,3.3899,3.3919,3.399,3.4162,3.4173,3.4184,3.4266,3.4289,3.4308,0,0,0,0,0,0,3.3608,3.3637,3.3614,3.3735,3.3772,3.38,3.3865,3.3837,3.3888,3.3878,3.386,3.387,3.3978,3.3995,3.393,3.4122,3.4051,3.4066,3.4106,3.4128,3.4145,3.4138,3.3855,0,0,0,0,0,3.364,3.3706,3.3729,3.3834,3.3853,3.3856,3.3892,3.3879,3.3916,3.3932,3.395,3.3987,3.4049,3.409,3.4148,3.4276,3.4283,3.4335,3.4353,3.4367,3.438,3.4447,3.447,3.4224,3.4224,3.4224,0,0,3.3707,3.3732,3.3775,3.3851,3.3877,3.3946,3.3869,3.3945,3.3996,3.3943,3.4041,3.4056,3.4097,3.4213,3.4265,3.423,3.4449,3.4381,3.4392,3.4397,3.4461,3.4484,3.4504,3.4232,3.423,3.4229,0,0,3.3864,3.389,3.3979,3.4008,3.4049,3.405,3.4072,3.4105,3.4113,3.4211,3.4173,3.4233,3.434,3.437,3.4399,3.4567,3.4534,3.4587,3.4677,3.4743,3.4762,3.4779,3.4837,3.4859,3.46,3.4601,3.4601,0,3.3942,3.4044,3.4029,3.4107,3.4141,3.4097,3.4187,3.4215,3.4274,3.4298,3.4258,3.4391,3.4416,3.4537,3.4578,3.4604,3.4627,3.4581,3.4761,3.4778,3.4793,3.4848,3.4871,3.4606,3.4606,3.4605,3.4605,0,3.4137,3.4208,3.4275,3.4332,3.4374,3.4458,3.4455,3.45,3.4483,3.4489,3.4589,3.4617,3.4679,3.4708,3.4693,3.4827,3.4804,3.4763,3.4691,3.4823,3.4874,3.4895,3.4615,3.4613,3.4611,3.461,0,0,3.4346,3.4394,3.4418,3.4443,3.4485,3.454,3.4622,3.4682,3.472,3.4762,3.4829,3.4921,3.4883,3.4916,3.4905,3.4963,3.5092,3.4915,3.4916,3.4945,3.524,3.5268,3.5293,3.5072,3.5076,3.5079,3.5235,0,3.4503,3.4645,3.4634,3.4767,3.4832,3.4791,3.4862,3.4896,3.4903,3.4959,3.4968,3.5032,3.4978,3.4998,3.5054,3.5065,3.5151,3.5054,3.5132,3.5135,3.5121,3.532,3.5351,3.5497,3.5256,3.5259,3.5262,0,3.4704,3.4753,3.4893,3.4924,3.4951,3.5015,3.5068,3.5123,3.516,3.5162,3.5199,3.5177,3.5259,3.5187,3.5299,3.5233,3.5265,3.5276,3.5281,3.5286,3.5205,3.5328,3.5544,3.5565,3.5293,3.5291,3.5289,0,3.484,3.4941,3.5037,3.5059,3.5099,3.5145,3.5164,3.5197,3.5233,3.5281,3.5304,3.5361,3.5391,3.5436,3.543,3.5378,3.5543,3.5471,3.5545,3.5546,3.558,3.5577,3.5801,3.5605,3.5605,3.5604,3.5604,0,3.5015,3.5102,3.5098,3.5157,3.5253,3.5239,3.5334,3.5348,3.5378,3.5438,3.5407,3.5465,3.5455,3.5512,3.5508,3.56,3.5615,3.5618,3.5615,3.5619,3.5618,3.5638,3.5627,3.561,3.5609,3.5608,3.5607,0,3.5182,3.5183,3.5285,3.5314,3.5324,3.5393,3.5418,3.5473,3.5478,3.5555,3.5573,3.5581,3.5647,3.5646,3.5721,3.5718,3.5831,3.5818,3.5818,3.5814,3.5887,3.588,3.613,3.6161,3.5947,3.5949,3.5951,0,3.5292,3.5358,3.5394,3.5432,3.5453,3.5516,3.5553,3.5543,3.5582,3.5629,3.5679,3.5742,3.5791,3.5899,3.5911,3.5968,3.5955,3.6039,3.5963,3.5965,3.5953,3.5948,3.5954,3.6053,3.6055,3.6057,3.6059,0,3.5487,3.5484,3.5539,3.5593,3.5638,3.5681,3.572,3.5753,3.5747,3.5794,3.586,3.5899,3.5975,3.6038,3.6093,3.6112,3.6084,3.6083,3.6102,3.6106,3.6102,3.6102,3.5855,3.6076,3.6075,3.6073,3.6072,3.6072,3.5627,3.5683,3.5717,3.5778,3.5807,3.5844,3.5897,3.5908,3.5964,3.6025,3.6016,3.609,3.6125,3.6195,3.622,3.6277,3.6247,3.6277,3.6284,3.629,3.6297,3.6095,3.6287,3.6287,3.6286,3.6286,3.6286,0,3.5818,3.5838,3.5895,3.595,3.5998,3.5969,3.6011,3.6053,3.6118,3.6153,3.6202,3.6278,3.6338,3.6356,3.6414,3.6456,3.6445,3.6472,3.6467,3.6472,3.6322,3.6297,3.648,3.648,3.648,3.648,3.648,3.648,3.5923,3.6015,3.6017,3.6122,3.6141,3.6213,3.6239,3.6273,3.63,3.6386,3.6436,3.6447,3.6475,3.6534,3.6588,3.6592,3.6613,3.6645,3.6643,3.6502,3.6482,3.6464,3.6441,3.665,3.665,3.6788,3.6789,3.679]},{"header":{"parameterUnit":"m.s-1","parameterCategory":1,"la1":30.2991,"la2":30.254,"lo1":-89.0895,"lo2":-89.0444,"dy":0.0017,"dx":0.0017,"nx":28,"ny":28,"refTime":"2023-08-18T21:00:00:Z","depth":0,"parameterNumber":3,"parameterNumberName":"V-component_of_WINDS"},"data":[0,0,0,0,0,0,0,0,0,0,0,0,0,0,0,0,0,0,0,0,0,0,0,0,0,0,0,0,0,0,0,0,0,0,0,0,0,0,0,0,0,0,0,0,0,0,0,0,0,0,0,0,0,0,0,0,0,0,0.657,0.6571,0,0.6628,0.6629,0.6629,0.6634,0.6633,0.6632,0.6632,0.6692,0.6694,0.6696,0,0,0,0,0,0,0,0,0,0,0,0,0,0.6463,0.6465,0.657,0.6571,0.6572,0.6628,0.6629,0.6629,0.6634,0.6633,0.6632,0.6631,0.6691,0.6694,0.6696,0,0,0,0,0,0,0,0,0,0,0,0,0,0.6514,0.6465,0.657,0.658,0.6582,0.6628,0.6629,0.663,0.6634,0.6633,0.6632,0.6631,0.669,0.6693,0.6697,0.6736,0,0,0.6707,0.6708,0,0,0,0,0,0,0,0,0.6511,0.6518,0.6578,0.658,0.6582,0.6623,0.6613,0.6665,0.6634,0.6614,0.6632,0.6631,0.667,0.6674,0.6687,0.6739,0.6742,0.6707,0.6709,0.671,0.6711,0,0,0,0,0,0,0,0.6508,0.6515,0.6593,0.6579,0.6581,0.6582,0.6588,0.6623,0.6647,0.6616,0.6616,0.6623,0.667,0.6684,0.6689,0.6742,0.6707,0.671,0.6712,0.6713,0.6828,0.6829,0,0,0,0,0,0,0.6502,0.6512,0.6591,0.6595,0.6543,0.6585,0.6592,0.661,0.6646,0.6651,0.6624,0.6623,0.6679,0.6685,0.6691,0.6739,0.671,0.6713,0.6715,0.6827,0.6828,0.6829,0,0,0,0,0,0,0.65,0.6509,0.6589,0.6554,0.6564,0.6588,0.6609,0.6612,0.6626,0.6652,0.6656,0.6634,0.6679,0.6686,0.6725,0.6741,0.6715,0.6718,0.6826,0.6827,0.6829,0.6836,0,0,0,0,0,0,0.6497,0.6508,0.6524,0.6554,0.6566,0.6622,0.661,0.6614,0.6632,0.6631,0.6663,0.6667,0.6678,0.672,0.6728,0.6745,0.6721,0.6824,0.6826,0.6828,0.6834,0.6838,0.684,0,0,0,0,0,0.6493,0.6524,0.6524,0.6534,0.6586,0.6623,0.6629,0.6642,0.6633,0.6649,0.6665,0.6666,0.6738,0.6724,0.6733,0.6752,0.6823,0.6826,0.6828,0.6833,0.6837,0.684,0,0,0,0,0,0,0.6495,0.6528,0.6529,0.6571,0.6594,0.6623,0.6644,0.6646,0.6672,0.667,0.6685,0.6692,0.6729,0.6744,0.6728,0.6791,0.678,0.6784,0.678,0.6784,0.6787,0.6783,0.6723,0,0,0,0,0,0.6501,0.6528,0.6555,0.6589,0.6601,0.662,0.6637,0.6644,0.6668,0.6678,0.6698,0.6721,0.6749,0.6767,0.6795,0.6836,0.6843,0.6853,0.6856,0.6859,0.6863,0.6885,0.689,0.6837,0.6837,0.6837,0,0,0.6512,0.6534,0.655,0.659,0.6609,0.6637,0.6628,0.6658,0.6679,0.6683,0.672,0.6735,0.6762,0.6802,0.682,0.6816,0.6878,0.6862,0.6864,0.6866,0.6888,0.6893,0.6897,0.6839,0.6839,0.6838,0,0,0.6548,0.6567,0.6597,0.6615,0.6643,0.6656,0.6663,0.6691,0.6701,0.6739,0.6742,0.6766,0.6814,0.6833,0.6849,0.689,0.6891,0.6898,0.6914,0.6936,0.694,0.6944,0.6958,0.6963,0.6902,0.6902,0.6902,0,0.6559,0.6601,0.6612,0.6642,0.6659,0.6663,0.6693,0.6711,0.6746,0.6758,0.6752,0.6811,0.683,0.6874,0.6883,0.6896,0.6905,0.6895,0.6938,0.6942,0.6946,0.6959,0.6965,0.6902,0.6902,0.6902,0.6902,0,0.6612,0.6641,0.6662,0.6696,0.6715,0.6745,0.6761,0.6779,0.6784,0.6797,0.6834,0.6857,0.6888,0.6899,0.6904,0.6943,0.6939,0.6935,0.6924,0.6951,0.6964,0.697,0.6903,0.6903,0.6903,0.6903,0,0,0.6653,0.6691,0.6698,0.6713,0.6743,0.6766,0.6795,0.6825,0.684,0.6864,0.6889,0.6929,0.6925,0.6943,0.6951,0.6969,0.6999,0.6963,0.6964,0.6969,0.7043,0.7045,0.7051,0.7,0.7001,0.7002,0.704,0,0.6691,0.6744,0.6754,0.68,0.6826,0.6829,0.6855,0.6876,0.6888,0.6912,0.6926,0.6954,0.6947,0.6958,0.6976,0.6992,0.7014,0.6989,0.7023,0.7024,0.7017,0.7058,0.7061,0.7097,0.7045,0.7046,0.7047,0,0.6744,0.6768,0.6816,0.6842,0.6853,0.6876,0.6904,0.6926,0.695,0.6958,0.6977,0.6982,0.7012,0.6999,0.704,0.7023,0.7037,0.7047,0.7048,0.7053,0.7038,0.7063,0.7108,0.7113,0.7055,0.7054,0.7054,0,0.6768,0.6813,0.6847,0.6859,0.689,0.6906,0.692,0.6942,0.6959,0.6983,0.6994,0.7021,0.7036,0.7057,0.7069,0.7059,0.711,0.7098,0.7117,0.7116,0.7128,0.7127,0.7176,0.7137,0.7137,0.7137,0.7137,0,0.681,0.6839,0.6858,0.6879,0.6911,0.6923,0.6954,0.6968,0.6988,0.7011,0.7015,0.7037,0.7052,0.7076,0.7085,0.7118,0.7124,0.7131,0.7133,0.7131,0.713,0.7141,0.7139,0.7138,0.7138,0.7137,0.7137,0,0.6843,0.6857,0.6894,0.692,0.6927,0.6949,0.6971,0.6992,0.7003,0.7033,0.704,0.7059,0.7087,0.71,0.7136,0.7142,0.7179,0.7179,0.7171,0.7172,0.719,0.7188,0.7247,0.7256,0.7211,0.7211,0.7212,0,0.6869,0.6892,0.6919,0.6935,0.6949,0.6974,0.6991,0.7003,0.702,0.7048,0.7064,0.7092,0.7116,0.716,0.7177,0.7203,0.7205,0.7223,0.7209,0.7205,0.7205,0.7203,0.7205,0.7226,0.7227,0.7227,0.7227,0,0.6914,0.692,0.6944,0.697,0.699,0.7011,0.7032,0.7045,0.7059,0.7079,0.7107,0.7125,0.716,0.7187,0.7215,0.7229,0.723,0.7232,0.7238,0.7236,0.7229,0.7233,0.7178,0.7231,0.723,0.723,0.723,0.723,0.6945,0.6964,0.6986,0.7013,0.7029,0.7049,0.7069,0.7082,0.7106,0.7135,0.714,0.717,0.7192,0.7229,0.7243,0.7267,0.7262,0.7271,0.7273,0.7275,0.7276,0.7225,0.7272,0.7272,0.7272,0.7272,0.7271,0,0.699,0.7004,0.7028,0.7057,0.7077,0.7076,0.7099,0.7116,0.7142,0.7162,0.7184,0.7217,0.7243,0.7261,0.7287,0.7303,0.7304,0.7309,0.7308,0.7311,0.7278,0.7271,0.7308,0.7308,0.7308,0.7308,0.7308,0.7308,0.7016,0.7049,0.7056,0.7097,0.7111,0.714,0.7153,0.717,0.7186,0.7221,0.7243,0.7254,0.7273,0.7301,0.7325,0.7329,0.7339,0.7344,0.7349,0.7318,0.7314,0.731,0.7303,0.7346,0.7346,0.738,0.738,0.738]}]]